Theta_e
322 317 314 317 317 316 314 312 311 314 317 314 313 314 317 320 321 324 326 332 336 338 343 347 347 349 350 353 357 359 362 364 357 358 358 358 353 354 355 354 354 351 353 357
318 314 320 320 316 314 313 311 311 314 316 314 314 313 317 320 320 322 324 329 334 337 341 346 348 349 349 354 359 362 366 365 354 350 359 367 363 360 359 357 357 357 355 359
315 318 321 316 314 313 313 312 311 309 313 315 315 314 317 320 323 324 325 329 332 336 338 342 346 348 347 355 360 363 367 364 357 357 357 366 360 358 360 359 357 357 359 355
317 321 319 315 313 315 310 315 313 311 310 307 316 307 317 319 321 324 325 328 330 334 336 342 344 346 344 353 358 365 368 367 364 364 363 364 356 350 353 357 357 360 359 354
314 316 316 313 313 317 312 316 313 312 310 310 311 310 316 319 315 321 325 327 330 331 334 333 343 347 348 352 352 359 368 371 370 368 367 364 359 357 358 356 362 361 360 359
316 320 317 315 317 317 317 314 313 314 312 304 311 311 310 311 314 321 327 329 332 332 334 331 334 349 350 351 351 355 365 370 371 370 369 368 363 360 358 357 358 357 356 355
313 312 317 317 313 317 314 310 304 304 305 303 312 311 312 315 316 323 325 331 333 335 333 335 341 342 351 348 351 355 362 365 369 369 368 368 368 363 360 362 357 356 355 354
306 304 311 315 313 311 312 311 305 300 301 304 313 308 314 322 322 328 332 333 336 337 340 341 343 345 349 352 349 350 361 365 367 367 367 371 371 364 363 363 359 356 354 355
308 307 315 316 317 315 311 309 314 308 309 306 310 314 318 321 323 325 333 334 336 342 345 346 347 348 350 352 358 359 359 362 366 365 368 369 369 370 365 361 362 360 370 364
312 308 316 317 317 317 315 317 309 310 304 302 305 307 305 318 319 323 325 332 338 340 341 345 347 350 352 352 354 359 361 365 367 367 366 365 367 369 369 370 366 364 368 371
313 312 313 316 313 311 312 310 312 312 310 303 300 304 320 321 321 322 328 333 337 339 340 341 342 346 351 350 351 351 355 360 361 361 364 367 363 364 366 366 369 367 367 369
315 312 308 312 318 318 318 315 314 309 308 310 309 307 323 322 322 324 324 331 338 338 340 340 342 344 344 349 352 351 353 353 355 360 367 363 361 361 363 364 365 370 367 360
318 311 305 308 313 317 315 315 314 313 312 309 305 309 321 322 320 322 323 325 335 339 341 340 341 343 348 348 352 349 353 353 357 360 358 360 358 360 362 365 367 367 356 360
322 313 309 305 309 314 311 315 316 313 308 308 308 310 315 318 319 321 323 324 325 337 340 341 341 341 345 345 348 349 345 351 353 359 361 364 360 358 362 365 363 362 362 362
317 310 313 314 314 314 314 313 314 312 313 309 311 310 315 320 320 322 324 325 326 328 334 335 335 336 340 341 345 342 342 348 351 355 354 355 362 364 366 365 364 356 358 360
319 312 314 311 313 314 311 313 313 313 313 312 312 312 321 323 324 322 325 324 323 327 331 331 333 335 335 337 342 341 344 341 350 349 350 357 361 361 360 362 363 357 352 350
316 313 312 307 312 311 308 312 313 314 315 313 308 312 321 321 322 323 325 326 325 327 329 331 333 334 337 335 342 344 346 344 345 347 348 349 354 354 356 358 359 359 353 355
314 314 312 306 310 301 312 318 316 312 313 314 314 316 321 321 323 323 324 327 326 328 330 332 332 332 331 331 331 339 339 348 347 346 345 348 349 349 352 351 352 357 357 359
318 314 308 305 304 309 311 314 313 311 311 318 316 319 319 321 321 321 327 328 328 327 329 329 329 330 333 332 333 337 338 340 340 341 343 346 346 344 347 346 346 348 352 352
315 316 309 307 302 300 312 316 319 317 307 319 319 318 318 319 312 316 323 324 323 324 325 326 327 327 329 334 334 335 336 339 338 341 344 346 346 344 342 344 345 345 346 346
310 313 307 306 303 307 316 318 319 306 309 319 319 318 317 315 316 320 320 321 323 324 324 327 328 327 330 332 334 333 335 337 341 343 343 344 344 343 343 342 343 343 342 342
309 308 307 309 305 303 319 318 313 317 319 318 317 317 316 317 318 318 320 323 324 325 327 327 327 329 331 332 333 334 335 340 342 342 342 341 341 340 335 338 340 341 339 337
308 313 311 311 310 319 318 317 319 318 317 317 318 318 318 318 318 319 322 325 326 327 328 330 329 328 330 332 335 331 332 336 337 337 336 337 338 337 338 336 336 335 336 334
317 319 311 311 315 315 317 318 320 320 319 319 319 319 319 318 320 322 322 322 323 326 326 328 328 328 327 331 334 334 334 333 334 331 331 334 334 332 335 335 334 333 333 332
316 317 313 310 317 318 319 319 319 319 320 320 321 322 322 321 321 322 322 323 323 323 324 326 324 324 326 329 332 334 335 335 327 331 332 331 332 331 329 332 332 332 334 330
316 315 310 309 317 316 317 319 320 319 319 322 322 321 322 322 322 322 320 322 324 324 326 326 327 328 329 330 331 333 335 335 333 332 332 331 330 331 329 326 328 318 315 314
Wind_Speed
16 14 11 3 9 8 6 7 9 3 3 2 5 10 10 7 7 13 9 16 17 16 15 18 16 16 15 14 14 12 10 11 4 4 6 5 7 8 8 7 7 7 6 7
15 11 5 7 4 5 7 9 4 4 2 7 10 11 4 3 2 2 6 12 15 17 18 16 16 15 13 12 13 13 11 9 5 3 3 3 4 4 5 5 6 8 7 7
16 9 9 1 3 10 14 8 10 6 11 14 11 7 7 5 6 4 6 8 13 15 19 18 17 15 13 12 13 12 12 11 8 7 5 3 2 1 4 5 6 9 9 8
15 16 6 4 8 9 10 9 10 9 13 12 13 3 2 19 13 7 5 9 13 15 13 19 20 17 15 13 11 12 13 13 10 9 7 6 4 5 5 6 7 8 9 10
11 13 11 3 11 12 11 11 7 11 10 16 12 10 10 18 23 20 5 5 14 13 15 28 10 20 18 16 12 10 10 12 11 11 9 6 6 6 7 6 4 6 9 11
15 7 6 9 10 11 7 11 15 16 12 11 4 9 5 7 26 23 4 6 4 10 11 26 37 19 15 16 14 11 11 9 10 12 11 8 9 8 3 7 5 6 7 8
13 14 12 6 11 11 12 15 10 7 10 4 11 2 13 22 34 27 1 9 6 6 3 4 13 14 13 18 15 13 13 11 9 9 10 11 10 8 6 5 6 8 8 8
13 14 17 12 14 11 15 16 9 4 7 3 12 9 14 24 27 6 12 9 7 8 12 14 11 7 11 14 12 12 16 13 12 10 9 8 10 7 8 8 9 11 8 10
12 6 12 2 12 8 16 16 6 11 23 7 8 10 11 10 13 9 14 11 11 19 17 16 13 10 8 6 4 10 14 11 11 12 9 9 8 9 8 10 10 9 4 1
17 2 6 8 6 12 16 12 10 7 4 7 5 8 16 9 7 9 5 11 20 23 22 8 8 10 7 3 5 7 4 7 5 6 9 8 8 9 8 7 6 7 5 3
13 12 6 4 9 12 9 11 12 9 7 4 6 7 18 6 3 5 11 7 18 19 16 6 4 4 7 8 8 4 6 7 10 10 9 8 7 6 9 8 7 6 6 5
10 14 8 13 12 13 7 7 6 2 9 3 9 6 12 8 6 6 4 10 13 6 9 8 10 9 8 7 6 8 7 6 8 7 1 8 9 9 8 7 8 4 5 2
9 7 9 14 8 18 12 12 12 15 13 11 7 11 4 6 3 8 9 11 8 6 6 8 4 4 7 8 6 6 5 5 5 7 7 7 9 9 6 6 6 4 4 4
4 13 15 13 2 9 7 22 14 13 8 11 11 6 10 7 13 10 8 7 7 5 2 3 11 10 9 3 5 4 5 7 7 7 6 5 5 5 3 3 6 6 6 5
6 12 16 17 3 7 14 18 15 16 14 11 14 17 13 14 12 8 5 3 3 6 7 7 12 11 8 6 4 1 3 4 7 6 7 6 6 4 3 4 5 4 2 5
11 12 14 16 19 19 13 16 18 12 14 14 15 11 13 13 9 8 7 8 6 2 3 0 2 4 4 4 5 3 3 2 3 6 7 5 3 3 3 3 2 4 5 4
13 13 10 14 20 20 16 13 12 10 7 13 11 11 9 7 7 6 6 3 4 5 3 5 5 6 3 5 6 4 4 1 2 5 6 6 5 5 5 5 4 3 6 6
10 8 8 11 13 15 15 5 5 5 6 8 10 7 11 9 9 9 9 6 6 4 4 6 5 8 10 11 10 7 6 4 4 6 7 6 6 6 5 6 7 6 5 6
9 8 10 9 12 14 17 15 12 9 9 16 11 11 11 6 6 8 11 12 9 9 9 8 9 10 9 9 9 8 8 8 7 8 7 7 7 6 7 8 8 8 7 7
2 8 7 9 13 13 11 10 9 5 0 12 11 11 12 11 8 5 14 11 12 13 12 12 13 13 12 9 10 9 9 7 8 8 8 7 8 9 10 10 9 9 9 9
7 2 8 9 7 3 11 9 9 6 7 8 10 10 11 9 11 15 18 17 16 14 15 14 13 13 13 12 12 12 11 10 9 8 8 8 8 10 10 11 11 10 12 11
4 6 9 8 9 1 10 6 8 6 8 12 13 13 14 14 16 17 17 15 15 15 16 16 14 12 12 13 12 12 11 10 9 9 9 9 9 9 10 12 11 12 12 14
2 3 5 6 5 6 10 10 8 9 9 11 13 12 14 16 17 18 16 15 14 16 14 13 13 12 9 10 9 10 10 8 8 9 11 10 10 12 10 12 12 11 12 12
8 6 2 5 8 7 8 8 11 12 12 14 15 16 16 18 19 21 18 16 14 15 15 15 15 14 12 10 9 10 11 12 13 13 9 10 10 12 12 11 11 11 12 12
6 3 3 5 10 7 8 11 12 12 12 13 14 17 19 20 20 19 17 15 13 12 13 12 13 14 15 12 14 13 13 12 10 11 14 12 10 12 12 12 11 11 12 12
6 7 4 7 9 5 8 10 11 12 13 15 16 16 13 12 16 19 16 12 15 14 16 16 16 16 15 15 15 15 14 14 13 12 11 10 9 8 10 10 12 15 18 19
Wind_Direction
210 249 243 354 3 16 338 299 327 290 2 271 259 292 278 225 226 173 180 168 171 180 179 170 193 181 184 168 163 172 165 127 123 146 169 201 167 181 194 203 185 199 219 166
223 248 279 59 43 326 296 273 278 28 357 244 238 238 281 324 247 233 203 173 176 178 168 174 177 179 191 167 164 168 153 143 156 147 233 183 164 206 197 187 175 199 219 163
245 200 70 301 269 251 257 309 45 321 290 257 252 225 149 112 210 207 242 190 183 179 175 175 174 184 183 168 163 166 158 164 182 209 206 207 140 68 215 180 192 208 204 187
237 275 144 304 252 276 299 38 329 308 300 303 198 137 319 14 350 153 165 191 177 185 196 170 173 178 184 169 176 167 171 167 181 198 217 198 192 175 197 208 197 189 180 189
233 231 281 223 271 285 313 339 309 284 273 277 231 135 13 43 339 299 117 29 188 189 199 22 229 174 183 155 170 176 168 170 184 190 212 202 213 213 184 208 188 186 186 197
279 311 259 279 231 259 291 281 271 257 245 261 307 131 12 85 243 272 145 201 36 334 109 144 233 164 171 155 147 163 167 186 193 187 200 214 218 243 235 188 172 194 205 211
226 251 251 231 278 271 251 255 261 258 254 12 285 71 170 196 222 246 67 60 42 310 28 84 138 153 151 138 152 151 164 174 191 213 208 201 220 224 239 203 190 201 212 209
215 216 203 209 228 267 271 274 293 17 314 209 291 135 167 201 208 98 106 82 71 52 41 29 46 113 142 150 168 158 161 173 178 189 216 212 213 214 218 201 232 204 212 212
301 146 171 103 213 230 246 250 271 237 219 195 15 3 114 123 110 115 97 88 70 63 47 20 9 21 62 143 133 135 162 171 181 193 198 212 222 224 226 235 229 265 190 213
285 213 181 147 231 251 270 314 295 307 21 360 73 42 252 43 49 74 66 97 80 74 2 355 4 12 30 85 136 114 154 161 169 229 200 208 226 222 240 243 269 292 331 302
268 288 158 244 200 241 197 240 243 307 295 145 221 216 262 151 67 29 92 87 123 141 164 125 103 54 17 40 36 66 161 186 188 204 218 200 203 234 237 236 229 225 249 243
247 286 294 218 216 215 220 283 259 279 296 327 323 83 43 26 96 96 349 66 62 36 116 166 158 152 116 101 40 50 10 5 340 336 287 195 212 231 236 230 247 224 225 273
351 232 260 256 201 -0 334 305 280 278 274 302 267 121 329 217 115 47 38 30 77 57 21 26 279 88 83 85 58 15 37 20 328 314 284 242 217 210 238 272 281 261 233 245
318 294 306 302 22 150 234 295 307 296 290 305 311 149 174 87 84 77 61 33 345 111 95 342 119 152 72 40 48 16 38 358 9 342 35 35 23 58 10 271 252 250 242 228
254 260 276 293 328 17 194 202 254 250 293 299 317 319 348 69 71 74 70 33 45 347 61 25 5 7 15 50 351 13 16 37 357 353 37 23 35 15 325 287 278 84 175 234
237 259 279 285 286 285 288 285 288 251 291 302 299 325 63 74 77 58 53 6 354 354 79 61 239 265 275 198 201 182 261 358 359 333 344 356 351 337 330 315 336 176 215 246
311 312 326 300 312 315 304 303 341 334 359 355 341 15 49 48 58 59 24 350 314 341 303 257 320 316 305 310 279 231 190 240 305 321 310 311 324 320 311 303 298 232 227 245
297 297 295 284 286 275 281 306 20 354 340 350 334 29 57 29 0 345 333 229 245 279 302 343 318 286 284 280 332 349 324 303 258 239 261 273 281 280 277 295 294 282 288 274
349 308 286 285 271 279 281 38 24 29 32 26 0 10 11 11 351 308 41 25 10 348 331 301 291 302 317 311 298 284 279 271 261 256 257 256 265 267 268 263 272 279 280 271
185 313 288 274 286 284 66 60 14 348 149 29 14 11 7 359 308 277 356 337 322 310 307 306 304 301 298 295 293 289 285 282 281 292 281 266 264 262 266 272 265 268 270 270
283 211 273 264 241 150 24 359 317 267 45 354 14 353 337 323 319 317 314 317 320 318 310 306 303 294 289 284 277 269 266 259 256 253 252 260 272 276 271 268 268 264 266 266
303 276 287 291 258 160 10 40 27 14 355 349 335 332 326 318 315 316 315 310 302 298 297 295 291 286 286 286 289 286 282 282 268 258 253 254 257 261 269 272 263 259 258 263
243 11 358 12 29 120 52 36 15 358 344 340 330 320 318 316 312 306 300 300 301 298 300 309 317 325 343 334 322 298 287 280 269 263 265 264 265 265 259 262 269 268 260 262
125 62 317 352 68 30 40 30 22 3 347 336 328 322 309 306 323 344 354 342 332 328 327 328 326 320 309 301 293 294 296 289 277 268 252 257 257 259 257 256 253 255 253 254
79 177 127 272 49 14 53 16 355 332 320 313 326 355 347 334 330 329 324 322 316 311 310 311 310 300 295 297 292 285 283 283 279 283 282 261 251 249 255 253 254 253 259 256
42 45 13 55 58 14 354 343 328 328 331 2 345 335 321 320 347 345 329 325 328 327 313 308 307 309 304 305 297 296 293 282 275 268 260 257 255 255 259 256 257 234 236 255